Location: B�rgermoos
(47.6500°N, 9.0667°E)
Time: 06:08:17
(UTC+00:00)

Cosmos 2263 Rocket - Pass Details

Date: 18 September 2020
Orbit: 822 x 849 km, 71.0° (Epoch: 22 October)

Event Time Altitude Azimuth Distance (km) Brightness Sun altitude
Rises 17:47:50 0° 189° (S) 3,343 5.3 -4.0°
Reaches altitude 10° 17:50:18 10° 184° (S) 2,416 4.6 -4.4°
Maximum altitude 17:55:37 51° 110° (ESE) 1,038 2.4 -5.3°
Drops below altitude 10° 18:01:00 10° 36° (NE) 2,444 4.3 -6.2°
Sets 18:03:31 0° 32° (NNE) 3,386 5.1 -6.6°
